SR9NLI Weather Reports


Display with metric or nautical units.
time (UTC)temp
F
wind
direction
speed
MPH
gust
MPH
rain 1hr
in
rain 24hr
in
rain mn
in
humidity
%
barometer
mb
20260507000451 60 182 5.0 15.0 0.00 0.00 0.00 100 949.0
20260507000350 60 180 5.0 15.0 0.00 0.00 0.00 100 949.0
20260507000146 60 194 2.0 15.0 0.00 0.00 0.00 100 948.9
20260506235943 60 190 3.0 14.0 0.00 0.00 0.00 100 948.9
20260506235842 60 185 4.0 20.0 0.00 0.00 0.00 100 948.8
20260506235740 60 179 6.0 20.0 0.00 0.00 0.00 100 948.8
20260506235538 60 173 8.0 24.0 0.00 0.00 0.00 100 948.7
20260506235334 60 170 6.0 24.0 0.00 0.00 0.00 100 948.7
20260506235234 60 174 5.0 14.0 0.00 0.00 0.00 100 948.8
20260506235132 60 176 3.0 14.0 0.00 0.00 0.00 100 948.9
20260506234928 60 182 4.0 16.0 0.00 0.00 0.00 100 948.9
20260506234725 60 185 4.0 16.0 0.00 0.00 0.00 100 948.9
20260506234624 60 184 4.0 16.0 0.00 0.00 0.00 100 948.9
20260506234525 60 183 3.0 11.0 0.00 0.00 0.00 100 949.0
20260506234318 60 198 3.0 11.0 0.00 0.00 0.00 100 948.9
20260506234115 60 210 3.0 11.0 0.00 0.00 0.00 100 949.0
20260506234015 61 216 3.0 11.0 0.00 0.00 0.00 100 948.9
20260506233913 60 217 3.0 11.0 0.00 0.00 0.00 100 949.0
20260506233709 60 215 2.0 10.0 0.00 0.00 0.00 100 949.1
20260506233506 60 206 2.0 10.0 0.00 0.00 0.00 100 949.1
20260506233405 60 206 2.0 9.0 0.00 0.00 0.00 100 949.1
20260506233302 60 201 2.0 7.0 0.00 0.00 0.00 100 949.0
20260506233059 60 193 2.0 10.0 0.00 0.00 0.00 100 949.1
20260506232856 60 200 2.0 10.0 0.00 0.00 0.00 100 948.9
20260506232755 60 198 2.0 10.0 0.00 0.00 0.00 100 949.1
20260506232649 60 213 2.0 6.0 0.00 0.00 0.00 100 949.0
20260506232454 60 221 2.0 8.0 0.00 0.00 0.00 100 949.0
20260506232243 61 214 2.0 12.0 0.00 0.00 0.00 100 949.0
20260506232142 61 212 2.0 12.0 0.00 0.00 0.00 100 949.0
20260506232040 61 214 2.0 12.0 0.00 0.00 0.00 100 949.0
20260506231836 61 216 2.0 12.0 0.00 0.00 0.00 100 948.9
20260506231633 61 220 2.0 12.0 0.00 0.00 0.00 100 948.9
20260506231532 61 226 2.0 14.0 0.00 0.00 0.00 100 948.9
20260506231429 61 240 2.0 14.0 0.00 0.00 0.00 100 948.8
20260506231226 61 222 3.0 14.0 0.00 0.00 0.00 100 948.8
20260506231024 61 219 3.0 10.0 0.00 0.00 0.00 100 948.8
20260506230923 61 219 3.0 11.0 0.00 0.00 0.00 100 948.8
20260506230826 61 208 3.0 12.0 0.00 0.00 0.00 100 948.9
20260506230617 61 209 3.0 12.0 0.00 0.00 0.00 100 948.8
20260506230414 61 234 2.0 13.0 0.00 0.00 0.00 100 948.8
20260506230313 61 230 2.0 13.0 0.00 0.00 0.00 100 948.7
20260506230211 61 218 2.0 13.0 0.00 0.00 0.00 100 948.7
20260506230007 61 216 2.0 13.0 0.00 0.00 0.00 100 948.8
20260506225804 61 193 3.0 18.0 0.00 0.00 0.00 100 948.9
20260506225703 61 198 4.0 18.0 0.00 0.00 0.00 100 948.9
20260506225601 61 194 4.0 18.0 0.00 0.00 0.00 100 948.7
20260506225358 61 207 3.0 13.0 0.00 0.00 0.00 100 949.0
20260506225156 61 197 3.0 16.0 0.00 0.00 0.00 100 949.0
20260506225055 61 194 4.0 16.0 0.00 0.00 0.00 100 948.9
20260506224952 62 195 4.0 16.0 0.00 0.00 0.00 100 948.9
20260506224749 62 192 4.0 20.0 0.00 0.00 0.00 100 949.0
20260506224546 62 187 4.0 20.0 0.00 0.00 0.00 100 949.0
20260506224445 62 186 4.0 20.0 0.00 0.00 0.00 100 948.9
20260506224342 62 192 4.0 24.0 0.00 0.00 0.00 100 948.8
20260506224139 62 191 4.0 24.0 0.00 0.00 0.00 100 949.0
20260506223935 62 189 4.0 17.0 0.00 0.00 0.00 100 948.8
20260506223835 62 190 4.0 17.0 0.00 0.00 0.00 100 948.9
20260506223732 62 195 4.0 16.0 0.00 0.00 0.00 100 948.8
20260506223529 62 213 3.0 16.0 0.00 0.00 0.00 100 948.9
20260506223326 62 209 4.0 16.0 0.00 0.00 0.00 100 948.8
20260506223225 62 202 4.0 17.0 0.00 0.00 0.00 100 948.8
20260506223123 62 204 4.0 17.0 0.00 0.00 0.00 100 948.9
20260506222920 62 203 4.0 20.0 0.00 0.00 0.00 100 948.8
20260506222717 62 196 4.0 20.0 0.00 0.00 0.00 100 948.9
20260506222616 62 195 4.0 20.0 0.00 0.00 0.00 100 948.8
20260506222511 62 205 4.0 11.0 0.00 0.00 0.00 100 948.9
20260506222308 62 203 3.0 13.0 0.00 0.00 0.00 100 948.9
20260506222105 62 198 4.0 23.0 0.00 0.00 0.00 100 948.8
20260506222005 62 193 5.0 23.0 0.00 0.00 0.00 100 948.8
20260506221903 62 197 5.0 23.0 0.00 0.00 0.00 100 948.5
20260506221700 62 199 4.0 16.0 0.00 0.00 0.00 100 948.8
20260506221456 62 206 3.0 12.0 0.00 0.00 0.00 100 948.7
20260506221355 62 211 3.0 11.0 0.00 0.00 0.00 100 948.8
20260506221253 62 207 4.0 18.0 0.00 0.00 0.00 100 948.7
20260506221049 62 194 4.0 18.0 0.00 0.00 0.00 100 948.7
20260506220846 62 213 3.0 14.0 0.00 0.00 0.00 100 948.6
20260506220745 62 226 3.0 9.0 0.00 0.00 0.00 100 948.8
20260506220643 62 222 3.0 11.0 0.00 0.00 0.00 100 948.8
20260506220441 62 209 4.0 13.0 0.00 0.00 0.00 100 948.8
20260506220238 62 203 4.0 19.0 0.00 0.00 0.00 100 948.9
20260506220137 62 205 4.0 19.0 0.00 0.00 0.00 100 949.0
20260506220034 62 207 3.0 19.0 0.00 0.00 0.00 100 948.8
20260506215831 62 210 3.0 10.0 0.00 0.00 0.00 100 948.7
20260506215628 62 204 3.0 12.0 0.00 0.00 0.00 100 948.7
20260506215527 62 206 3.0 12.0 0.00 0.00 0.00 100 948.8
20260506215425 62 214 3.0 12.0 0.00 0.00 0.00 100 948.8
20260506215222 62 218 3.0 10.0 0.00 0.00 0.00 100 948.8
20260506215019 62 208 3.0 12.0 0.00 0.00 0.00 100 948.8
20260506214904 62 190 3.0 14.0 0.00 0.00 0.00 100 948.7
20260506214802 62 190 4.0 14.0 0.00 0.00 0.00 100 948.7
20260506214559 62 193 4.0 14.0 0.00 0.00 0.00 100 948.7
20260506214356 63 194 4.0 14.0 0.00 0.00 0.00 100 948.5
20260506214255 63 191 3.0 14.0 0.00 0.00 0.00 100 948.8
20260506214153 62 194 4.0 14.0 0.00 0.00 0.00 100 948.7
20260506213949 62 199 3.0 13.0 0.00 0.00 0.00 100 948.7
20260506213746 63 199 3.0 12.0 0.00 0.00 0.00 100 948.6
20260506213645 63 199 3.0 12.0 0.00 0.00 0.00 100 948.8
20260506213543 63 210 3.0 16.0 0.00 0.00 0.00 100 948.7
20260506213340 63 189 3.0 16.0 0.00 0.00 0.00 100 948.6
20260506213136 63 204 3.0 10.0 0.00 0.00 0.00 100 948.6
20260506213035 63 230 2.0 10.0 0.00 0.00 0.00 100 948.6
20260506212933 63 241 2.0 10.0 0.00 0.00 0.00 100 948.7
20260506212730 63 219 3.0 17.0 0.00 0.00 0.00 100 948.7
20260506212526 63 198 3.0 19.0 0.00 0.00 0.00 100 948.6
20260506212425 63 203 4.0 19.0 0.00 0.00 0.00 100 948.7
20260506212320 63 202 4.0 19.0 0.00 0.00 0.00 100 948.6
20260506212116 63 212 3.0 19.0 0.00 0.00 0.00 100 948.7
20260506211913 63 217 2.0 10.0 0.00 0.00 0.00 100 948.6
20260506211812 63 225 2.0 9.0 0.00 0.00 0.00 100 948.6
20260506211710 63 190 3.0 17.0 0.00 0.00 0.00 100 948.6
20260506211507 63 190 3.0 17.0 0.00 0.00 0.00 100 948.7
20260506211303 63 199 4.0 14.0 0.00 0.00 0.00 100 948.7
20260506211202 63 204 3.0 14.0 0.00 0.00 0.00 100 948.5
20260506211100 63 201 3.0 12.0 0.00 0.00 0.00 100 948.6
20260506210856 63 205 3.0 18.0 0.00 0.00 0.00 100 948.7
20260506210654 64 201 3.0 18.0 0.00 0.00 0.00 100 948.6
20260506210553 64 190 4.0 23.0 0.00 0.00 0.00 100 948.4
20260506210451 64 192 4.0 23.0 0.00 0.00 0.00 100 948.7
20260506210247 64 197 5.0 23.0 0.00 0.00 0.00 100 948.5
20260506210044 64 216 4.0 15.0 0.00 0.00 0.00 100 948.4
20260506205944 64 224 4.0 15.0 0.00 0.00 0.00 100 948.5
20260506205841 64 230 4.0 15.0 0.00 0.00 0.00 100 948.4
20260506205638 64 207 4.0 15.0 0.00 0.00 0.00 100 948.5
20260506205435 64 202 4.0 16.0 0.00 0.00 0.00 100 948.4
20260506205335 64 198 4.0 16.0 0.00 0.00 0.00 100 948.5
20260506205232 64 203 4.0 16.0 0.00 0.00 0.00 100 948.5
20260506205029 64 219 3.0 15.0 0.00 0.00 0.00 100 948.4
20260506204826 64 204 4.0 15.0 0.00 0.00 0.00 100 948.3
20260506204725 64 197 4.0 15.0 0.00 0.00 0.00 100 948.3
20260506204623 64 188 4.0 15.0 0.00 0.00 0.00 100 948.4
20260506204419 64 181 4.0 17.0 0.00 0.00 0.00 100 948.5
20260506204216 64 190 4.0 17.0 0.00 0.00 0.00 100 948.5
20260506204116 64 188 4.0 17.0 0.00 0.00 0.00 100 948.4
20260506204014 64 208 3.0 17.0 0.00 0.00 0.00 100 948.5
20260506203812 64 202 4.0 15.0 0.00 0.00 0.00 100 948.4
20260506203609 64 209 4.0 18.0 0.00 0.00 0.00 100 948.3
20260506203508 64 200 4.0 18.0 0.00 0.00 0.00 100 948.5
20260506203405 64 199 4.0 18.0 0.00 0.00 0.00 100 948.5
20260506203202 64 198 3.0 16.0 0.00 0.00 0.00 100 948.6
20260506202959 64 196 3.0 16.0 0.00 0.00 0.00 100 948.5
20260506202858 64 185 4.0 21.0 0.00 0.00 0.00 100 948.5
20260506202756 64 186 5.0 21.0 0.00 0.00 0.00 100 948.5
20260506202553 64 185 4.0 21.0 0.00 0.00 0.00 100 948.6
20260506202350 64 201 4.0 13.0 0.00 0.00 0.00 100 948.6
20260506202249 64 209 4.0 13.0 0.00 0.00 0.00 100 948.6
20260506202143 64 200 4.0 13.0 0.00 0.00 0.00 100 948.6
20260506201940 64 205 3.0 13.0 0.00 0.00 0.00 100 948.6
20260506201738 64 196 3.0 13.0 0.00 0.00 0.00 100 948.6
20260506201637 64 190 3.0 11.0 0.00 0.00 0.00 100 948.6
20260506201534 64 197 3.0 11.0 0.00 0.00 0.00 100 948.6
20260506201331 64 200 2.0 11.0 0.00 0.00 0.00 100 948.7
20260506201128 64 191 3.0 16.0 0.00 0.00 0.00 100 948.7
20260506201027 64 191 3.0 16.0 0.00 0.00 0.00 100 948.6
20260506200925 64 192 3.0 16.0 0.00 0.00 0.00 100 948.6
20260506200721 64 206 2.0 10.0 0.00 0.00 0.00 100 948.7
20260506200519 64 220 2.0 6.0 0.00 0.00 0.00 100 948.7
20260506200418 64 208 2.0 9.0 0.00 0.00 0.00 100 948.6
20260506200316 64 203 2.0 9.0 0.00 0.00 0.00 100 948.8
20260506200113 64 0 2.0 9.0 0.00 0.00 0.00 100 948.8
20260506195909 64 0 2.0 8.0 0.00 0.00 0.00 100 948.8
20260506195809 64 212 2.0 12.0 0.00 0.00 0.00 100 948.8
20260506195707 64 190 4.0 20.0 0.00 0.00 0.00 100 948.8
20260506195504 64 190 4.0 20.0 0.00 0.00 0.00 100 948.8
20260506195301 64 189 3.0 12.0 0.00 0.00 0.00 100 948.8
20260506195200 64 187 3.0 12.0 0.00 0.00 0.00 100 948.8
20260506195058 64 189 3.0 12.0 0.00 0.00 0.00 100 948.8
20260506194854 64 196 3.0 14.0 0.00 0.00 0.00 100 948.8
20260506194651 64 199 3.0 14.0 0.00 0.00 0.00 100 948.8
20260506194551 64 186 4.0 15.0 0.00 0.00 0.00 100 948.8
20260506194448 64 185 3.0 15.0 0.00 0.00 0.00 100 948.8
20260506194245 64 187 3.0 15.0 0.00 0.00 0.00 100 948.8
20260506194042 64 196 2.0 10.0 0.00 0.00 0.00 100 948.7
20260506193942 64 197 2.0 10.0 0.00 0.00 0.00 100 948.8
20260506193840 63 197 2.0 10.0 0.00 0.00 0.00 100 948.8
20260506193637 63 199 2.0 5.0 0.00 0.00 0.00 100 948.8
20260506193434 63 208 2.0 11.0 0.00 0.00 0.00 100 948.8
20260506193333 63 203 2.0 11.0 0.00 0.00 0.00 100 948.8
20260506193230 63 197 2.0 11.0 0.00 0.00 0.00 100 948.9
20260506193027 63 188 2.0 6.0 0.00 0.00 0.00 100 948.9
20260506192823 63 184 2.0 7.0 0.00 0.00 0.00 100 948.9
20260506192723 63 181 2.0 8.0 0.00 0.00 0.00 100 948.8
20260506192621 63 179 2.0 8.0 0.00 0.00 0.00 100 948.8
20260506192418 63 177 2.0 8.0 0.00 0.00 0.00 100 948.8
20260506192215 63 178 2.0 6.0 0.00 0.00 0.00 100 948.8
20260506192114 63 181 2.0 6.0 0.00 0.00 0.00 100 948.8
20260506191913 63 198 1.0 5.0 0.00 0.00 0.00 100 948.8
20260506191710 63 183 2.0 7.0 0.00 0.00 0.00 100 948.8
20260506191609 63 177 2.0 7.0 0.00 0.00 0.00 100 948.8
20260506191507 63 172 2.0 7.0 0.00 0.00 0.00 100 948.7
20260506191304 63 171 3.0 8.0 0.00 0.00 0.00 100 948.8
20260506191100 63 170 2.0 8.0 0.00 0.00 0.00 100 948.8
20260506191000 63 169 2.0 5.0 0.00 0.00 0.00 100 948.9
20260506190858 63 165 2.0 5.0 0.00 0.00 0.00 100 948.9
20260506190655 63 165 3.0 7.0 0.00 0.00 0.00 100 948.8
20260506190451 64 170 3.0 7.0 0.00 0.00 0.00 100 948.7
20260506190336 63 172 3.0 8.0 0.00 0.00 0.00 100 948.8
20260506190234 63 172 2.0 8.0 0.00 0.00 0.00 100 948.7
20260506190031 63 174 2.0 8.0 0.00 0.00 0.00 100 948.6
20260506185828 64 176 2.0 5.0 0.00 0.00 0.00 100 948.7
20260506185727 64 173 2.0 5.0 0.00 0.00 0.00 100 948.8
20260506185625 64 172 2.0 5.0 0.00 0.00 0.00 100 948.7
20260506185421 64 171 2.0 5.0 0.00 0.00 0.00 100 948.8
20260506185218 64 172 2.0 6.0 0.00 0.00 0.00 100 948.7
20260506185117 64 173 2.0 6.0 0.00 0.00 0.00 100 948.6
20260506185015 64 171 2.0 6.0 0.00 0.00 0.00 100 948.8
20260506184812 64 168 3.0 8.0 0.00 0.00 0.00 100 948.8
20260506184609 64 167 3.0 8.0 0.00 0.00 0.00 100 948.8
20260506184508 64 168 2.0 8.0 0.00 0.00 0.00 100 948.7
20260506184405 64 178 2.0 6.0 0.00 0.00 0.00 100 948.6
20260506184202 65 168 4.0 12.0 0.00 0.00 0.00 100 948.7
20260506183959 65 166 5.0 12.0 0.00 0.00 0.00 100 948.7
20260506183858 65 167 4.0 12.0 0.00 0.00 0.00 100 948.7
20260506183756 65 177 4.0 10.0 0.00 0.00 0.00 100 948.7
20260506183554 65 181 4.0 14.0 0.00 0.00 0.00 100 948.8
20260506183351 65 179 4.0 14.0 0.00 0.00 0.00 100 948.6
20260506183251 65 177 4.0 11.0 0.00 0.00 0.00 100 948.6
20260506183149 65 177 4.0 11.0 0.00 0.00 0.00 100 948.6
20260506182946 65 183 3.0 9.0 0.00 0.00 0.00 100 948.6
20260506182743 65 182 3.0 8.0 0.00 0.00 0.00 100 948.8
20260506182642 65 181 3.0 8.0 0.00 0.00 0.00 100 948.7
20260506182540 65 182 3.0 10.0 0.00 0.00 0.00 100 948.7
20260506182337 65 183 3.0 10.0 0.00 0.00 0.00 100 948.6
20260506182133 65 181 3.0 10.0 0.00 0.00 0.00 100 948.6
20260506182033 65 179 3.0 10.0 0.00 0.00 0.00 100 948.5
20260506181930 65 178 3.0 10.0 0.00 0.00 0.00 100 948.5
20260506181728 65 182 3.0 8.0 0.00 0.00 0.00 100 948.7
20260506181525 65 178 4.0 12.0 0.00 0.00 0.00 100 948.6
20260506181424 65 175 4.0 13.0 0.00 0.00 0.00 100 948.6
20260506181322 66 175 4.0 13.0 0.00 0.00 0.00 100 948.6
20260506181119 65 173 3.0 13.0 0.00 0.00 0.00 100 948.6
20260506180915 65 177 3.0 8.0 0.00 0.00 0.00 100 948.6
20260506180815 65 180 2.0 8.0 0.00 0.00 0.00 100 948.6
20260506180712 65 182 3.0 8.0 0.00 0.00 0.00 100 948.5
20260506180509 66 174 3.0 8.0 0.00 0.00 0.00 100 948.6
20260506180306 66 175 3.0 9.0 0.00 0.00 0.00 100 948.6
20260506180205 66 177 3.0 9.0 0.00 0.00 0.00 100 948.7
20260506175859 66 176 3.0 10.0 0.00 0.00 0.00 100 948.6
20260506175656 66 179 3.0 10.0 0.00 0.00 0.00 100 948.7
20260506175555 66 170 3.0 11.0 0.00 0.00 0.00 100 948.7
20260506175453 66 171 4.0 20.0 0.00 0.00 0.00 100 948.7
20260506175249 66 168 6.0 20.0 0.00 0.00 0.00 100 948.7
20260506175046 66 169 6.0 15.0 0.00 0.00 0.00 100 948.7
20260506174945 66 169 6.0 14.0 0.00 0.00 0.00 100 948.7
20260506174843 66 167 6.0 14.0 0.00 0.00 0.00 100 948.7
20260506174640 66 169 5.0 12.0 0.00 0.00 0.00 100 948.8
20260506174436 66 177 4.0 12.0 0.00 0.00 0.00 100 948.7
20260506174336 66 182 4.0 12.0 0.00 0.00 0.00 100 948.7
20260506174234 66 184 3.0 11.0 0.00 0.00 0.00 100 948.7
20260506174031 66 188 2.0 10.0 0.00 0.00 0.00 100 948.8
20260506173827 66 196 2.0 10.0 0.00 0.00 0.00 100 948.7
20260506173727 66 186 2.0 10.0 0.00 0.00 0.00 100 948.7
20260506173624 67 181 3.0 10.0 0.00 0.00 0.00 100 948.7
20260506173421 67 178 4.0 10.0 0.00 0.00 0.00 100 948.7
20260506173217 67 179 3.0 10.0 0.00 0.00 0.00 100 948.8
20260506173117 67 179 4.0 13.0 0.00 0.00 0.00 100 948.6
20260506173014 67 187 3.0 13.0 0.00 0.00 0.00 100 948.8
20260506172811 67 188 3.0 13.0 0.00 0.00 0.00 100 948.7
20260506172608 67 188 2.0 10.0 0.00 0.00 0.00 100 948.8
20260506172508 67 180 3.0 12.0 0.00 0.00 0.00 100 948.7
20260506172405 67 182 2.0 12.0 0.00 0.00 0.00 100 948.7
20260506172202 67 183 3.0 12.0 0.00 0.00 0.00 100 948.7
20260506171958 67 191 3.0 10.0 0.00 0.00 0.00 100 948.7
20260506171857 67 193 2.0 10.0 0.00 0.00 0.00 100 948.7
20260506171755 67 190 2.0 10.0 0.00 0.00 0.00 100 948.7
20260506171552 67 179 4.0 13.0 0.00 0.00 0.00 100 948.7
20260506171349 67 183 4.0 13.0 0.00 0.00 0.00 100 948.7
20260506171248 67 191 3.0 13.0 0.00 0.00 0.00 100 948.7
20260506171146 67 197 3.0 16.0 0.00 0.00 0.00 100 948.6
20260506170943 67 191 3.0 16.0 0.00 0.00 0.00 100 948.7
20260506170740 67 205 3.0 11.0 0.00 0.00 0.00 100 948.8
20260506170640 67 210 2.0 9.0 0.00 0.00 0.00 100 948.7
20260506170537 67 212 2.0 9.0 0.00 0.00 0.00 100 948.8
20260506170334 67 209 3.0 12.0 0.00 0.00 0.00 100 948.8
20260506170131 68 216 2.0 12.0 0.00 0.00 0.00 100 948.8
20260506170030 68 226 2.0 12.0 0.00 0.00 0.00 100 948.8
20260506165928 68 221 2.0 9.0 0.00 0.00 0.00 100 948.8
20260506165724 68 231 2.0 9.0 0.00 0.00 0.00 100 948.8
20260506165521 68 216 2.0 9.0 0.00 0.00 0.00 100 948.8
20260506165421 68 211 2.0 9.0 0.00 0.00 0.00 100 948.9
20260506165318 68 206 2.0 9.0 0.00 0.00 0.00 100 948.8
20260506165116 68 203 2.0 10.0 0.00 0.00 0.00 100 948.7
20260506164913 68 199 3.0 10.0 0.00 0.00 0.00 100 948.7
20260506164812 68 212 2.0 10.0 0.00 0.00 0.00 100 948.7
20260506164709 68 235 2.0 8.0 0.00 0.00 0.00 100 948.8
20260506164507 68 238 2.0 7.0 0.00 0.00 0.00 100 948.7
20260506164304 68 213 2.0 11.0 0.00 0.00 0.00 100 948.7
20260506164203 68 218 2.0 11.0 0.00 0.00 0.00 100 948.7
20260506164101 68 217 2.0 11.0 0.00 0.00 0.00 100 948.6
20260506163858 68 210 2.0 8.0 0.00 0.00 0.00 100 948.8
20260506163655 68 203 2.0 8.0 0.00 0.00 0.00 100 948.8
20260506163554 68 197 2.0 8.0 0.00 0.00 0.00 100 948.7
20260506163452 68 215 2.0 8.0 0.00 0.00 0.00 100 948.8
20260506163249 68 220 2.0 9.0 0.00 0.00 0.00 100 948.8
20260506163046 68 222 2.0 9.0 0.00 0.00 0.00 100 948.8
20260506162945 68 220 2.0 9.0 0.00 0.00 0.00 100 948.8
20260506162842 68 219 2.0 8.0 0.00 0.00 0.00 100 948.8
20260506162639 68 0 2.0 8.0 0.00 0.00 0.00 100 948.9
20260506162423 68 0 2.0 9.0 0.00 0.00 0.00 100 948.9
20260506162322 68 0 2.0 10.0 0.00 0.00 0.00 100 948.8
20260506162219 68 219 2.0 10.0 0.00 0.00 0.00 100 948.8
20260506162016 68 223 2.0 10.0 0.00 0.00 0.00 100 948.9
20260506161813 68 0 2.0 8.0 0.00 0.00 0.00 100 949.0
20260506161712 68 0 2.0 8.0 0.00 0.00 0.00 100 948.9
20260506161610 68 220 2.0 10.0 0.00 0.00 0.00 100 948.9
20260506161406 68 214 3.0 13.0 0.00 0.00 0.00 100 948.9
20260506161203 69 220 2.0 13.0 0.00 0.00 0.00 100 948.8
20260506161102 69 235 2.0 11.0 0.00 0.00 0.00 100 949.0
20260506160959 69 225 2.0 11.0 0.00 0.00 0.00 100 949.0
20260506160757 69 219 2.0 10.0 0.00 0.00 0.00 100 948.9
20260506160553 69 210 2.0 9.0 0.00 0.00 0.00 100 948.9
20260506160453 69 213 2.0 13.0 0.00 0.00 0.00 100 948.9
20260506160350 69 216 2.0 13.0 0.00 0.00 0.00 100 948.8
20260506160147 69 209 3.0 15.0 0.00 0.00 0.00 100 949.0
20260506155944 69 190 3.0 15.0 0.00 0.00 0.00 100 949.0
20260506155843 69 188 4.0 17.0 0.00 0.00 0.00 100 948.9
20260506155740 69 189 4.0 17.0 0.00 0.00 0.00 100 949.0
20260506155538 69 191 3.0 16.0 0.00 0.00 0.00 100 948.8
20260506155334 70 204 3.0 10.0 0.00 0.00 0.00 100 948.9
20260506155233 70 205 3.0 10.0 0.00 0.00 0.00 100 948.9
20260506155132 70 212 3.0 10.0 0.00 0.00 0.00 100 948.9
20260506154929 70 217 3.0 10.0 0.00 0.00 0.00 100 949.0
20260506154726 70 229 2.0 10.0 0.00 0.00 0.00 100 949.0
20260506154625 70 231 2.0 10.0 0.00 0.00 0.00 100 949.0
20260506154522 70 206 3.0 14.0 0.00 0.00 0.00 100 949.0
20260506154319 70 189 4.0 16.0 0.00 0.00 0.00 100 949.1
20260506154116 70 203 3.0 16.0 0.00 0.00 0.00 100 949.0
20260506154015 70 207 3.0 16.0 0.00 0.00 0.00 100 949.0
20260506153913 70 214 2.0 14.0 0.00 0.00 0.00 100 948.9
20260506153710 70 238 2.0 8.0 0.00 0.00 0.00 100 949.1
20260506153507 70 224 2.0 10.0 0.00 0.00 0.00 100 949.1
20260506153406 70 216 3.0 12.0 0.00 0.00 0.00 100 949.1
20260506153303 69 194 3.0 12.0 0.00 0.00 0.00 100 949.1
20260506153101 69 194 3.0 12.0 0.00 0.00 0.00 100 949.1
20260506152858 69 229 2.0 10.0 0.00 0.00 0.00 100 949.1
20260506152757 69 242 2.0 10.0 0.00 0.00 0.00 100 949.2
20260506152655 69 212 2.0 10.0 0.00 0.00 0.00 100 949.1
20260506152453 69 205 2.0 10.0 0.00 0.00 0.00 100 949.2
20260506152250 69 225 2.0 10.0 0.00 0.00 0.00 100 949.3
20260506152149 69 218 2.0 10.0 0.00 0.00 0.00 100 949.2
20260506152046 69 207 3.0 12.0 0.00 0.00 0.00 100 949.3
20260506151843 69 204 3.0 12.0 0.00 0.00 0.00 100 949.2
20260506151640 69 206 3.0 12.0 0.00 0.00 0.00 100 949.2
20260506151540 69 205 3.0 9.0 0.00 0.00 0.00 100 949.2
20260506151437 69 204 3.0 9.0 0.00 0.00 0.00 100 949.2
20260506151234 69 200 3.0 10.0 0.00 0.00 0.00 100 949.2
20260506151032 69 181 3.0 11.0 0.00 0.00 0.00 100 949.2
20260506150931 69 174 4.0 16.0 0.00 0.00 0.00 100 949.3
20260506150828 69 172 5.0 17.0 0.00 0.00 0.00 100 949.2
20260506150626 69 171 4.0 17.0 0.00 0.00 0.00 100 949.3
20260506150423 70 201 2.0 10.0 0.00 0.00 0.00 100 949.3
20260506150323 70 179 4.0 15.0 0.00 0.00 0.00 100 949.4
20260506150220 70 178 4.0 15.0 0.00 0.00 0.00 100 949.4
20260506150017 70 174 4.0 15.0 0.00 0.00 0.00 100 949.4
20260506145814 70 178 3.0 13.0 0.00 0.00 0.00 100 949.3
20260506145713 70 177 4.0 14.0 0.00 0.00 0.00 100 949.4
20260506145610 70 182 3.0 14.0 0.00 0.00 0.00 100 949.4
20260506145407 69 188 4.0 14.0 0.00 0.00 0.00 100 949.3
20260506145204 69 184 4.0 14.0 0.00 0.00 0.00 100 949.4
20260506145104 69 185 4.0 14.0 0.00 0.00 0.00 100 949.3
20260506145002 69 181 4.0 15.0 0.00 0.00 0.00 100 949.3
20260506144758 69 187 4.0 15.0 0.00 0.00 0.00 100 949.5
20260506144555 69 188 4.0 14.0 0.00 0.00 0.00 100 949.5
20260506144455 69 189 4.0 14.0 0.00 0.00 0.00 100 949.5
20260506144353 69 191 4.0 13.0 0.00 0.00 0.00 100 949.5
20260506144149 69 192 4.0 15.0 0.00 0.00 0.00 100 949.4
20260506143946 69 191 4.0 15.0 0.00 0.00 0.00 100 949.4
20260506143845 69 194 3.0 15.0 0.00 0.00 0.00 100 949.5
20260506143743 70 191 4.0 15.0 0.00 0.00 0.00 100 949.3
20260506143540 70 198 4.0 16.0 0.00 0.00 0.00 100 949.3
20260506143337 70 203 3.0 13.0 0.00 0.00 0.00 100 949.5
20260506143236 70 204 2.0 9.0 0.00 0.00 0.00 100 949.5
20260506143134 70 201 2.0 13.0 0.00 0.00 0.00 100 949.4
20260506142931 70 192 3.0 14.0 0.00 0.00 0.00 100 949.6
20260506142728 70 196 3.0 14.0 0.00 0.00 0.00 100 949.4
20260506142627 70 210 3.0 14.0 0.00 0.00 0.00 100 949.5
20260506142525 70 204 3.0 9.0 0.00 0.00 0.00 100 949.5
20260506142321 70 201 3.0 10.0 0.00 0.00 0.00 100 949.5
20260506142118 70 193 3.0 12.0 0.00 0.00 0.00 100 949.4
20260506142017 70 200 3.0 12.0 0.00 0.00 0.00 100 949.4
20260506141914 70 198 2.0 12.0 0.00 0.00 0.00 100 949.5
20260506141711 70 206 2.0 12.0 0.00 0.00 0.00 100 949.5
20260506141508 70 195 3.0 16.0 0.00 0.00 0.00 100 949.6
20260506141407 70 186 5.0 19.0 0.00 0.00 0.00 100 949.4
20260506141304 70 185 5.0 19.0 0.00 0.00 0.00 100 949.4
20260506141101 70 176 5.0 19.0 0.00 0.00 0.00 100 949.4
20260506140858 70 177 5.0 17.0 0.00 0.00 0.00 100 949.4
20260506140757 70 177 4.0 17.0 0.00 0.00 0.00 100 949.4
20260506140654 71 185 4.0 16.0 0.00 0.00 0.00 100 949.4
20260506140452 72 204 2.0 12.0 0.00 0.00 0.00 100 949.4
20260506140248 72 213 2.0 12.0 0.00 0.00 0.00 100 949.4
20260506140147 73 212 3.0 15.0 0.00 0.00 0.00 100 949.4
20260506140045 73 213 2.0 15.0 0.00 0.00 0.00 100 949.4
20260506135842 74 226 2.0 15.0 0.00 0.00 0.00 100 949.4
20260506135638 74 244 2.0 11.0 0.00 0.00 0.00 100 949.4
20260506135537 74 239 3.0 11.0 0.00 0.00 0.00 100 949.4
20260506135435 74 241 2.0 11.0 0.00 0.00 0.00 100 949.3
20260506135232 74 240 2.0 9.0 0.00 0.00 0.00 100 949.3
20260506135029 73 241 2.0 12.0 0.00 0.00 0.00 100 949.3
20260506134928 73 226 2.0 12.0 0.00 0.00 0.00 100 949.4
20260506134826 73 213 3.0 12.0 0.00 0.00 0.00 100 949.3
20260506134622 73 192 4.0 15.0 0.00 0.00 0.00 100 949.3
20260506134409 73 203 4.0 15.0 0.00 0.00 0.00 100 949.3
20260506134309 73 211 4.0 15.0 0.00 0.00 0.00 100 949.4
20260506134206 73 247 2.0 11.0 0.00 0.00 0.00 100 949.4
20260506134004 74 230 2.0 10.0 0.00 0.00 0.00 100 949.4
20260506133801 73 202 2.0 11.0 0.00 0.00 0.00 100 949.4
20260506133700 73 207 2.0 11.0 0.00 0.00 0.00 100 949.4
20260506133558 72 195 3.0 13.0 0.00 0.00 0.00 100 949.3
20260506133354 72 190 4.0 15.0 0.00 0.00 0.00 100 949.4
20260506133151 71 190 5.0 15.0 0.00 0.00 0.00 100 949.2
20260506133050 71 202 3.0 12.0 0.00 0.00 0.00 100 949.2
20260506132948 72 198 3.0 12.0 0.00 0.00 0.00 100 949.4
20260506132744 72 211 2.0 11.0 0.00 0.00 0.00 100 949.4
20260506132541 71 202 3.0 16.0 0.00 0.00 0.00 100 949.4
20260506132441 71 211 3.0 16.0 0.00 0.00 0.00 100 949.4
20260506132338 71 203 3.0 16.0 0.00 0.00 0.00 100 949.3
20260506132134 71 191 4.0 16.0 0.00 0.00 0.00 100 949.3
20260506131931 72 185 4.0 14.0 0.00 0.00 0.00 100 949.3
20260506131831 72 189 3.0 14.0 0.00 0.00 0.00 100 949.3
20260506131729 72 206 3.0 14.0 0.00 0.00 0.00 100 949.2
20260506131526 73 215 2.0 8.0 0.00 0.00 0.00 100 949.3
20260506131324 73 228 2.0 7.0 0.00 0.00 0.00 100 949.3
20260506131223 73 224 2.0 8.0 0.00 0.00 0.00 100 949.3
20260506131120 73 246 2.0 8.0 0.00 0.00 0.00 100 949.4
20260506130917 73 209 3.0 10.0 0.00 0.00 0.00 100 949.3
20260506130715 73 191 4.0 11.0 0.00 0.00 0.00 100 949.5
20260506130614 73 187 4.0 13.0 0.00 0.00 0.00 100 949.4
20260506130511 73 189 3.0 13.0 0.00 0.00 0.00 100 949.3
20260506130308 73 205 2.0 15.0 0.00 0.00 0.00 100 949.4
20260506130105 73 208 2.0 15.0 0.00 0.00 0.00 100 949.5
20260506130005 73 215 3.0 15.0 0.00 0.00 0.00 100 949.5
20260506125902 73 230 2.0 12.0 0.00 0.00 0.00 100 949.5
20260506125659 73 0 2.0 7.0 0.00 0.00 0.00 100 949.5
20260506125456 73 233 2.0 9.0 0.00 0.00 0.00 100 949.3
20260506125355 73 236 3.0 14.0 0.00 0.00 0.00 100 949.5
20260506125254 73 243 3.0 14.0 0.00 0.00 0.00 100 949.5
20260506125050 72 239 4.0 14.0 0.00 0.00 0.00 100 949.6
20260506124846 72 229 4.0 13.0 0.00 0.00 0.00 100 949.6
20260506124746 72 236 4.0 13.0 0.00 0.00 0.00 100 949.6
20260506124643 72 237 4.0 13.0 0.00 0.00 0.00 100 949.6
20260506124439 73 235 3.0 13.0 0.00 0.00 0.00 100 949.6
20260506124237 73 236 3.0 13.0 0.00 0.00 0.00 100 949.6
20260506124136 73 238 2.0 13.0 0.00 0.00 0.00 100 949.6
20260506124034 73 240 2.0 8.0 0.00 0.00 0.00 100 949.6
20260506123830 73 229 2.0 8.0 0.00 0.00 0.00 100 949.7
20260506123627 73 226 2.0 11.0 0.00 0.00 0.00 100 949.8
20260506123527 73 220 2.0 11.0 0.00 0.00 0.00 100 949.8
20260506123425 73 236 2.0 17.0 0.00 0.00 0.00 100 949.8
20260506123221 72 241 2.0 17.0 0.00 0.00 0.00 100 949.7
20260506123018 72 238 2.0 9.0 0.00 0.00 0.00 100 949.8
20260506122917 72 240 2.0 11.0 0.00 0.00 0.00 100 949.8
20260506122815 72 243 2.0 11.0 0.00 0.00 0.00 100 949.8
20260506122612 73 222 2.0 11.0 0.00 0.00 0.00 100 949.5
20260506122409 73 210 2.0 10.0 0.00 0.00 0.00 100 949.8
20260506122309 73 218 2.0 10.0 0.00 0.00 0.00 100 949.8
20260506122206 73 237 2.0 10.0 0.00 0.00 0.00 100 949.9
20260506122003 73 252 2.0 9.0 0.00 0.00 0.00 100 949.8
20260506121800 73 207 2.0 11.0 0.00 0.00 0.00 100 949.8
20260506121700 73 204 2.0 11.0 0.00 0.00 0.00 100 949.8
20260506121558 73 197 2.0 11.0 0.00 0.00 0.00 100 949.8
20260506121355 73 209 2.0 10.0 0.00 0.00 0.00 100 949.8
20260506121152 73 204 3.0 13.0 0.00 0.00 0.00 100 949.8
20260506121051 73 195 3.0 13.0 0.00 0.00 0.00 100 949.8
20260506120948 73 201 3.0 13.0 0.00 0.00 0.00 100 949.6
20260506120745 72 202 3.0 15.0 0.00 0.00 0.00 100 949.7
20260506120542 72 177 4.0 15.0 0.00 0.00 0.00 100 949.8
20260506120442 72 173 6.0 15.0 0.00 0.00 0.00 100 949.6
20260506120340 72 171 6.0 15.0 0.00 0.00 0.00 100 949.7
20260506120136 72 171 4.0 15.0 0.00 0.00 0.00 100 949.7
20260506115932 72 180 4.0 13.0 0.00 0.00 0.00 100 949.7
20260506115832 73 179 4.0 13.0 0.00 0.00 0.00 100 949.8
20260506115729 73 179 4.0 13.0 0.00 0.00 0.00 100 949.6
20260506115526 72 179 3.0 12.0 0.00 0.00 0.00 100 949.7
20260506115322 73 127 2.0 12.0 0.00 0.00 0.00 100 949.7
20260506115222 72 126 3.0 12.0 0.00 0.00 0.00 100 949.8
20260506115120 72 151 3.0 12.0 0.00 0.00 0.00 100 949.7
20260506114917 72 197 3.0 12.0 0.00 0.00 0.00 100 949.8
20260506114714 72 194 3.0 17.0 0.00 0.00 0.00 100 949.8
20260506114613 72 183 4.0 17.0 0.00 0.00 0.00 100 949.7
20260506114510 71 183 4.0 17.0 0.00 0.00 0.00 100 949.6
20260506114307 71 213 4.0 14.0 0.00 0.00 0.00 100 949.8
20260506114105 71 240 4.0 14.0 0.00 0.00 0.00 100 949.8
20260506114004 71 254 6.0 17.0 0.00 0.00 0.00 100 949.8
20260506113902 71 256 5.0 17.0 0.00 0.00 0.00 100 949.8
20260506113658 70 254 6.0 17.0 0.00 0.00 0.00 100 949.7
20260506113455 70 232 3.0 15.0 0.00 0.00 0.00 100 949.8
20260506113355 70 232 3.0 15.0 0.00 0.00 0.00 100 949.9
20260506113253 70 216 3.0 12.0 0.00 0.00 0.00 100 949.9
20260506113050 70 235 4.0 18.0 0.00 0.00 0.00 100 949.9
20260506112847 70 237 3.0 18.0 0.00 0.00 0.00 100 949.9
20260506112746 70 219 3.0 13.0 0.00 0.00 0.00 100 949.9
20260506112644 70 255 4.0 13.0 0.00 0.00 0.00 100 949.9
20260506112441 69 261 8.0 17.0 0.00 0.00 0.00 100 950.0
20260506112238 69 261 6.0 17.0 0.00 0.00 0.00 100 949.8
20260506112137 71 248 4.0 17.0 0.00 0.00 0.00 100 949.8
20260506112035 71 249 3.0 15.0 0.00 0.00 0.00 100 949.8
20260506111832 71 250 5.0 15.0 0.00 0.00 0.00 100 950.0
20260506111629 70 251 5.0 15.0 0.00 0.00 0.00 100 949.9
20260506111528 71 240 3.0 15.0 0.00 0.00 0.00 100 949.9
20260506111426 71 241 3.0 13.0 0.00 0.00 0.00 100 950.0
20260506111224 71 231 3.0 12.0 0.00 0.00 0.00 100 949.9
20260506111020 71 242 5.0 19.0 0.00 0.00 0.00 100 949.9
20260506110920 71 243 4.0 19.0 0.00 0.00 0.00 100 950.0
20260506110818 71 246 3.0 19.0 0.00 0.00 0.00 100 950.0
20260506110601 71 243 2.0 10.0 0.00 0.00 0.00 100 949.9
20260506110359 70 251 6.0 20.0 0.00 0.00 0.00 100 949.9
20260506110258 70 252 7.0 20.0 0.00 0.00 0.00 100 949.9
20260506110155 70 250 6.0 20.0 0.00 0.00 0.00 100 949.8
20260506105953 70 233 4.0 13.0 0.00 0.00 0.00 100 949.9
20260506105750 70 229 4.0 16.0 0.00 0.00 0.00 100 950.0
20260506105650 71 231 4.0 16.0 0.00 0.00 0.00 100 950.0
20260506105547 70 232 4.0 16.0 0.00 0.00 0.00 100 950.0
20260506105344 70 238 4.0 14.0 0.00 0.00 0.00 100 950.0
20260506105140 71 235 3.0 13.0 0.00 0.00 0.00 100 949.9
20260506105039 71 233 3.0 13.0 0.00 0.00 0.00 100 950.0
20260506104937 71 232 3.0 16.0 0.00 0.00 0.00 100 950.0
20260506104734 71 235 2.0 16.0 0.00 0.00 0.00 100 950.0
20260506104531 71 242 2.0 10.0 0.00 0.00 0.00 100 950.1
20260506104431 71 246 2.0 10.0 0.00 0.00 0.00 100 950.0
20260506104328 71 243 2.0 10.0 0.00 0.00 0.00 100 950.0
20260506104125 71 0 2.0 10.0 0.00 0.00 0.00 100 950.1
20260506103922 70 186 3.0 11.0 0.00 0.00 0.00 100 950.1
20260506103821 70 179 3.0 15.0 0.00 0.00 0.00 100 950.1
20260506103719 70 179 4.0 15.0 0.00 0.00 0.00 100 950.0
20260506103516 70 187 3.0 15.0 0.00 0.00 0.00 100 950.0
20260506103313 71 240 2.0 11.0 0.00 0.00 0.00 100 950.1
20260506103212 70 231 2.0 11.0 0.00 0.00 0.00 100 950.1
20260506103110 70 214 3.0 12.0 0.00 0.00 0.00 100 950.1
20260506102907 70 209 2.0 12.0 0.00 0.00 0.00 100 950.1
20260506102704 70 208 2.0 12.0 0.00 0.00 0.00 100 950.1
20260506102603 71 197 2.0 12.0 0.00 0.00 0.00 100 950.1
20260506102500 71 198 2.0 12.0 0.00 0.00 0.00 100 950.1
20260506102258 71 185 2.0 12.0 0.00 0.00 0.00 100 950.1
20260506102055 71 200 2.0 9.0 0.00 0.00 0.00 100 950.2
20260506101954 71 213 2.0 6.0 0.00 0.00 0.00 100 950.2
20260506101852 71 218 2.0 6.0 0.00 0.00 0.00 100 950.2
20260506101649 71 228 1.0 8.0 0.00 0.00 0.00 100 950.3
20260506101446 70 214 2.0 8.0 0.00 0.00 0.00 100 950.3
20260506101345 70 207 2.0 8.0 0.00 0.00 0.00 100 950.4
20260506101242 70 210 2.0 10.0 0.00 0.00 0.00 100 950.4
20260506101040 69 217 2.0 12.0 0.00 0.00 0.00 100 950.2
20260506100836 68 221 2.0 8.0 0.00 0.00 0.00 100 950.3
20260506100736 68 217 2.0 10.0 0.00 0.00 0.00 100 950.2
20260506100633 68 219 2.0 10.0 0.00 0.00 0.00 100 950.2
20260506100429 68 242 3.0 15.0 0.00 0.00 0.00 100 950.3
20260506100226 67 247 4.0 15.0 0.00 0.00 0.00 100 950.3
20260506100126 67 242 4.0 15.0 0.00 0.00 0.00 100 950.2
20260506100023 67 241 5.0 15.0 0.00 0.00 0.00 100 950.2
20260506095820 67 250 6.0 17.0 0.00 0.00 0.00 100 950.2
20260506095617 67 253 6.0 17.0 0.00 0.00 0.00 100 950.1
20260506095516 68 250 5.0 17.0 0.00 0.00 0.00 100 950.2
20260506095413 68 246 5.0 16.0 0.00 0.00 0.00 100 950.2
20260506095211 68 237 5.0 19.0 0.00 0.00 0.00 100 950.0
20260506095008 68 265 7.0 19.0 0.00 0.00 0.00 100 950.0
20260506094907 67 269 7.0 19.0 0.00 0.00 0.00 100 949.8
20260506094805 67 269 7.0 16.0 0.00 0.00 0.00 100 950.0
20260506094602 69 243 3.0 16.0 0.00 0.00 0.00 100 950.1
20260506094358 70 266 2.0 8.0 0.00 0.00 0.00 100 950.1
20260506094258 70 0 2.0 7.0 0.00 0.00 0.00 100 950.1
20260506094155 70 238 2.0 9.0 0.00 0.00 0.00 100 950.2
20260506093952 70 229 3.0 9.0 0.00 0.00 0.00 100 950.2
20260506093749 69 233 2.0 9.0 0.00 0.00 0.00 100 950.1
20260506093648 69 229 2.0 8.0 0.00 0.00 0.00 100 950.2
20260506093545 69 232 2.0 12.0 0.00 0.00 0.00 100 950.1
20260506093342 69 228 2.0 12.0 0.00 0.00 0.00 100 950.1
20260506093140 69 237 4.0 17.0 0.00 0.00 0.00 100 950.0
20260506093039 69 246 4.0 17.0 0.00 0.00 0.00 100 950.0
20260506092936 69 247 4.0 17.0 0.00 0.00 0.00 100 950.0
20260506092733 68 241 4.0 15.0 0.00 0.00 0.00 100 950.0
20260506092530 68 227 2.0 12.0 0.00 0.00 0.00 100 949.9
20260506092430 68 221 2.0 11.0 0.00 0.00 0.00 100 949.9
20260506092328 68 218 2.0 11.0 0.00 0.00 0.00 100 950.0
20260506092124 68 217 2.0 9.0 0.00 0.00 0.00 100 949.9
20260506091922 68 220 2.0 9.0 0.00 0.00 0.00 100 950.0
20260506091821 67 227 2.0 9.0 0.00 0.00 0.00 100 949.9
20260506091718 67 235 2.0 9.0 0.00 0.00 0.00 100 949.9
20260506091515 67 244 2.0 10.0 0.00 0.00 0.00 100 950.0
20260506091312 67 241 3.0 10.0 0.00 0.00 0.00 100 950.0
20260506091212 67 235 3.0 10.0 0.00 0.00 0.00 100 950.0
20260506091109 67 214 2.0 10.0 0.00 0.00 0.00 100 949.9
20260506090906 67 214 2.0 8.0 0.00 0.00 0.00 100 950.0
20260506090703 68 215 2.0 8.0 0.00 0.00 0.00 100 949.9
20260506090603 68 224 2.0 8.0 0.00 0.00 0.00 100 949.9
20260506090500 68 240 2.0 8.0 0.00 0.00 0.00 100 950.1
20260506090257 68 239 2.0 8.0 0.00 0.00 0.00 100 950.0
20260506090053 68 243 3.0 14.0 0.00 0.00 0.00 100 950.0
20260506085953 68 245 3.0 14.0 0.00 0.00 0.00 100 950.0
20260506085850 67 247 3.0 14.0 0.00 0.00 0.00 100 950.0
20260506085647 67 218 2.0 9.0 0.00 0.00 0.00 100 949.9
20260506085444 67 229 2.0 20.0 0.00 0.00 0.00 100 949.9
20260506085343 67 224 3.0 20.0 0.00 0.00 0.00 100 949.8
20260506085240 67 226 3.0 20.0 0.00 0.00 0.00 100 949.9
20260506085038 67 216 2.0 10.0 0.00 0.00 0.00 100 949.9
20260506084835 67 235 3.0 15.0 0.00 0.00 0.00 100 950.0
20260506084734 67 237 3.0 15.0 0.00 0.00 0.00 100 949.9
20260506084632 67 234 3.0 15.0 0.00 0.00 0.00 100 949.9
20260506084430 67 226 2.0 12.0 0.00 0.00 0.00 100 949.9
20260506084227 67 236 3.0 17.0 0.00 0.00 0.00 100 949.9
20260506084127 67 244 4.0 17.0 0.00 0.00 0.00 100 949.9
20260506084024 67 247 4.0 17.0 0.00 0.00 0.00 100 949.7
20260506083821 66 239 4.0 12.0 0.00 0.00 0.00 100 949.9
20260506083618 67 222 3.0 12.0 0.00 0.00 0.00 100 949.9
20260506083517 67 228 3.0 12.0 0.00 0.00 0.00 100 949.9
20260506083415 67 226 2.0 10.0 0.00 0.00 0.00 100 949.8
20260506083212 67 184 3.0 14.0 0.00 0.00 0.00 100 949.9
20260506083009 67 209 4.0 14.0 0.00 0.00 0.00 100 949.8
20260506082908 67 223 3.0 13.0 0.00 0.00 0.00 100 949.8
20260506082805 66 238 4.0 13.0 0.00 0.00 0.00 100 949.7
20260506082551 66 223 3.0 13.0 0.00 0.00 0.00 100 949.7
20260506082349 66 219 2.0 8.0 0.00 0.00 0.00 100 949.8
20260506082248 66 226 2.0 12.0 0.00 0.00 0.00 100 949.7
20260506082145 66 229 2.0 12.0 0.00 0.00 0.00 100 949.8
20260506081942 66 240 2.0 14.0 0.00 0.00 0.00 100 949.8
20260506081739 66 227 3.0 14.0 0.00 0.00 0.00 100 949.8
20260506081638 65 231 3.0 14.0 0.00 0.00 0.00 100 949.8
20260506081536 65 223 2.0 10.0 0.00 0.00 0.00 100 949.9
20260506081333 65 218 2.0 13.0 0.00 0.00 0.00 100 949.8
20260506081130 66 218 2.0 13.0 0.00 0.00 0.00 100 949.8
20260506081029 66 220 2.0 13.0 0.00 0.00 0.00 100 949.8
20260506080927 66 224 2.0 7.0 0.00 0.00 0.00 100 949.9
20260506080724 65 225 2.0 9.0 0.00 0.00 0.00 100 949.8
20260506080520 65 223 2.0 10.0 0.00 0.00 0.00 100 949.9
20260506080420 65 222 2.0 10.0 0.00 0.00 0.00 100 949.7
20260506080317 65 221 2.0 10.0 0.00 0.00 0.00 100 949.8
20260506080114 65 223 2.0 7.0 0.00 0.00 0.00 100 949.8
20260506073433 63 251 2.0 10.0 0.00 0.00 0.00 100 949.7
20260506073333 64 217 2.0 9.0 0.00 0.00 0.00 100 949.6
20260506073230 63 221 2.0 12.0 0.00 0.00 0.00 100 949.7
20260506073028 63 217 2.0 16.0 0.00 0.00 0.00 100 949.7
20260506072824 63 241 2.0 16.0 0.00 0.00 0.00 100 949.6
20260506072724 63 255 2.0 16.0 0.00 0.00 0.00 100 949.5
20260506072622 63 260 2.0 8.0 0.00 0.00 0.00 100 949.7
20260506072419 63 220 2.0 12.0 0.00 0.00 0.00 100 949.7
20260506072216 62 217 3.0 12.0 0.00 0.00 0.00 100 949.6
20260506072115 63 221 3.0 10.0 0.00 0.00 0.00 100 949.7
20260506072013 62 224 2.0 10.0 0.00 0.00 0.00 100 949.5
20260506071810 62 227 3.0 14.0 0.00 0.00 0.00 100 949.4
20260506071607 62 230 4.0 14.0 0.00 0.00 0.00 100 949.5
20260506071507 62 222 4.0 14.0 0.00 0.00 0.00 100 949.5
20260506071404 62 218 3.0 13.0 0.00 0.00 0.00 100 949.5
20260506071201 62 213 2.0 9.0 0.00 0.00 0.00 100 949.4
20260506070957 62 0 2.0 13.0 0.00 0.00 0.00 100 949.4
20260506070857 62 0 2.0 13.0 0.00 0.00 0.00 100 949.5
20260506070754 62 211 2.0 13.0 0.00 0.00 0.00 100 949.4
20260506070550 62 238 2.0 13.0 0.00 0.00 0.00 100 949.4
20260506070347 62 250 2.0 10.0 0.00 0.00 0.00 100 949.4
20260506070247 62 270 2.0 10.0 0.00 0.00 0.00 100 949.3
20260506070144 62 0 2.0 10.0 0.00 0.00 0.00 100 949.5
20260506062449 60 215 2.0 12.0 0.00 0.00 0.00 100 949.3
20260506062245 60 226 3.0 19.0 0.00 0.00 0.00 100 949.2
20260506062042 59 231 3.0 19.0 0.00 0.00 0.00 100 949.3
20260506061941 60 226 3.0 19.0 0.00 0.00 0.00 100 949.2
20260506061839 60 217 3.0 12.0 0.00 0.00 0.00 100 949.2
20260506061636 60 215 3.0 12.0 0.00 0.00 0.00 100 949.3
20260506061433 60 222 3.0 15.0 0.00 0.00 0.00 100 949.2
20260506061333 60 217 3.0 15.0 0.00 0.00 0.00 100 949.3
20260506061230 60 219 3.0 15.0 0.00 0.00 0.00 100 949.2
20260506061027 59 219 3.0 14.0 0.00 0.00 0.00 100 949.2
20260506060824 60 236 3.0 20.0 0.00 0.00 0.00 100 949.2
20260506060723 60 234 3.0 20.0 0.00 0.00 0.00 100 949.2
20260506060621 60 233 3.0 20.0 0.00 0.00 0.00 100 949.1
20260506060418 60 0 1.0 8.0 0.00 0.00 0.00 100 949.2
20260506060215 60 226 2.0 10.0 0.00 0.00 0.00 100 949.2
20260506060114 60 229 2.0 10.0 0.00 0.00 0.00 100 949.1
20260506051248 57 281 6.0 15.0 0.00 0.00 0.00 100 948.6
20260506051147 57 273 5.0 15.0 0.00 0.00 0.00 100 948.4
20260506051044 57 260 4.0 14.0 0.00 0.00 0.00 100 948.3
20260506050842 57 231 3.0 15.0 0.00 0.00 0.00 100 948.4
20260506050638 57 220 3.0 15.0 0.00 0.00 0.00 100 948.2
20260506050538 57 229 4.0 15.0 0.00 0.00 0.00 100 948.2
20260506050435 57 232 4.0 15.0 0.00 0.00 0.00 100 948.3
20260506050231 57 235 4.0 18.0 0.00 0.00 0.00 100 948.3
20260506045013 56 236 5.0 21.0 0.00 0.00 0.00 100 948.3
20260506044810 56 241 7.0 32.0 0.00 0.00 0.00 100 948.4
20260506044710 56 244 6.0 32.0 0.00 0.00 0.00 100 948.3
20260506044607 55 244 7.0 32.0 0.00 0.00 0.00 100 948.5
20260506044405 55 241 6.0 32.0 0.00 0.00 0.00 100 948.3
20260506044202 55 234 6.0 27.0 0.00 0.00 0.00 100 948.3
20260506044101 55 239 6.0 27.0 0.00 0.00 0.00 100 948.2
20260506043959 55 240 6.0 27.0 0.00 0.00 0.00 100 948.3
20260506043756 55 249 7.0 29.0 0.00 0.00 0.00 100 948.2
20260506043552 55 243 6.0 29.0 0.00 0.00 0.00 100 948.2
20260506043451 55 242 6.0 29.0 0.00 0.00 0.00 100 948.4
20260506043349 55 232 5.0 21.0 0.00 0.00 0.00 100 948.1
20260506043146 55 228 4.0 16.0 0.00 0.00 0.00 100 948.2
20260506042943 55 237 4.0 24.0 0.00 0.00 0.00 100 948.2
20260506042842 55 237 4.0 24.0 0.00 0.00 0.00 100 948.2
20260506042739 55 243 4.0 24.0 0.00 0.00 0.00 100 948.3
20260506042537 55 239 4.0 15.0 0.00 0.00 0.00 100 948.1
20260506042333 55 237 4.0 20.0 0.00 0.00 0.00 100 948.1
20260506042233 55 228 4.0 20.0 0.00 0.00 0.00 100 948.1
20260506042131 55 225 4.0 20.0 0.00 0.00 0.00 100 947.9
20260506041928 56 227 4.0 21.0 0.00 0.00 0.00 100 948.0
20260506041725 55 228 4.0 21.0 0.00 0.00 0.00 100 948.0
20260506041625 55 228 4.0 21.0 0.00 0.00 0.00 100 948.0
20260506041522 55 220 4.0 15.0 0.00 0.00 0.00 100 948.0
20260506041319 56 222 3.0 15.0 0.00 0.00 0.00 100 948.1
20260506041116 56 232 4.0 15.0 0.00 0.00 0.00 100 947.9
20260506041016 56 234 3.0 21.0 0.00 0.00 0.00 100 948.1
20260506040914 56 225 3.0 21.0 0.00 0.00 0.00 100 948.0
20260506040711 56 223 3.0 21.0 0.00 0.00 0.00 100 947.9
20260506040508 56 236 3.0 12.0 0.00 0.00 0.00 100 947.8
20260506040408 56 226 3.0 12.0 0.00 0.00 0.00 100 948.0
20260506040306 56 223 3.0 13.0 0.00 0.00 0.00 100 948.0
20260506035859 56 259 2.0 12.0 0.00 0.00 0.00 100 947.9
20260506035759 56 260 2.0 13.0 0.00 0.00 0.00 100 947.8
20260506035656 56 233 2.0 20.0 0.00 0.00 0.00 100 948.0
20260506035453 56 0 2.0 20.0 0.00 0.00 0.00 100 947.9
20260506035250 56 237 3.0 12.0 0.00 0.00 0.00 100 947.7
20260506035149 56 226 4.0 18.0 0.00 0.00 0.00 100 947.9
20260506035047 56 239 4.0 21.0 0.00 0.00 0.00 100 947.9
20260506034844 56 242 5.0 21.0 0.00 0.00 0.00 100 947.9
20260506034641 56 238 5.0 20.0 0.00 0.00 0.00 100 947.7
20260506034541 56 237 5.0 22.0 0.00 0.00 0.00 100 948.1
20260506034439 56 238 5.0 22.0 0.00 0.00 0.00 100 948.0
20260506034236 56 235 4.0 22.0 0.00 0.00 0.00 100 948.0
20260506034034 56 233 2.0 12.0 0.00 0.00 0.00 100 948.2
20260506033933 56 233 3.0 12.0 0.00 0.00 0.00 100 948.2
20260506033831 56 234 3.0 12.0 0.00 0.00 0.00 100 948.2
20260506033627 56 221 2.0 13.0 0.00 0.00 0.00 100 948.0
20260506033425 56 216 2.0 9.0 0.00 0.00 0.00 100 948.1
20260506033324 56 213 2.0 9.0 0.00 0.00 0.00 100 948.1
20260506033221 56 228 2.0 10.0 0.00 0.00 0.00 100 948.2
20260506033018 56 226 2.0 10.0 0.00 0.00 0.00 100 948.2
20260506032815 56 217 2.0 12.0 0.00 0.00 0.00 100 948.1
20260506032714 56 219 2.0 12.0 0.00 0.00 0.00 100 948.2
20260506032612 56 221 3.0 12.0 0.00 0.00 0.00 100 948.3
20260506032409 56 221 2.0 12.0 0.00 0.00 0.00 100 948.2
20260506032205 56 222 2.0 12.0 0.00 0.00 0.00 100 948.2
20260506032105 56 220 2.0 11.0 0.00 0.00 0.00 100 948.2
20260506032002 56 222 2.0 10.0 0.00 0.00 0.00 100 948.3
20260506031759 56 219 2.0 12.0 0.00 0.00 0.00 100 948.2
20260506031556 56 221 2.0 12.0 0.00 0.00 0.00 100 948.3
20260506031455 56 224 2.0 11.0 0.00 0.00 0.00 100 948.3
20260506031353 56 230 2.0 11.0 0.00 0.00 0.00 100 948.2
20260506031149 56 232 2.0 11.0 0.00 0.00 0.00 100 948.3
20260506030946 56 244 2.0 10.0 0.00 0.00 0.00 100 948.3
20260506030832 56 241 2.0 10.0 0.00 0.00 0.00 100 948.3
20260506030730 56 236 2.0 10.0 0.00 0.00 0.00 100 948.3
20260506030527 56 218 2.0 12.0 0.00 0.00 0.00 100 948.3
20260506030325 56 221 2.0 12.0 0.00 0.00 0.00 100 948.3
20260506030224 56 221 2.0 12.0 0.00 0.00 0.00 100 948.4
20260506030121 56 221 2.0 8.0 0.00 0.00 0.00 100 948.2
20260506025918 56 0 2.0 5.0 0.00 0.00 0.00 100 948.3
20260506025715 57 255 3.0 10.0 0.00 0.00 0.00 100 948.3
20260506025614 56 254 4.0 13.0 0.00 0.00 0.00 100 948.3
20260506025512 57 252 4.0 13.0 0.00 0.00 0.00 100 948.5
20260506025308 56 234 3.0 13.0 0.00 0.00 0.00 100 948.4
20260506025106 57 221 2.0 13.0 0.00 0.00 0.00 100 948.4
20260506025005 56 216 2.0 13.0 0.00 0.00 0.00 100 948.4
20260506024903 56 210 2.0 8.0 0.00 0.00 0.00 100 948.4
20260506024700 57 217 2.0 7.0 0.00 0.00 0.00 100 948.5
20260506024456 57 218 2.0 7.0 0.00 0.00 0.00 100 948.4
20260506024356 57 227 2.0 7.0 0.00 0.00 0.00 100 948.3
20260506024254 57 211 2.0 13.0 0.00 0.00 0.00 100 948.4
20260506024051 57 212 2.0 13.0 0.00 0.00 0.00 100 948.2
20260506023847 57 207 2.0 13.0 0.00 0.00 0.00 100 948.3
20260506023746 57 201 2.0 16.0 0.00 0.00 0.00 100 948.3
20260506023644 57 205 2.0 16.0 0.00 0.00 0.00 100 948.4
20260506023442 57 201 2.0 16.0 0.00 0.00 0.00 100 948.4
20260506023238 57 227 2.0 7.0 0.00 0.00 0.00 100 948.4
20260506023138 57 222 2.0 8.0 0.00 0.00 0.00 100 948.4
20260506023035 57 202 2.0 13.0 0.00 0.00 0.00 100 948.5
20260506022832 57 178 3.0 13.0 0.00 0.00 0.00 100 948.4
20260506022629 57 174 2.0 10.0 0.00 0.00 0.00 100 948.4
20260506022528 57 0 1.0 5.0 0.00 0.00 0.00 100 948.5
20260506022426 58 0 1.0 5.0 0.00 0.00 0.00 100 948.5
20260506022222 58 246 2.0 8.0 0.00 0.00 0.00 100 948.4
20260506022019 58 265 2.0 8.0 0.00 0.00 0.00 100 948.3
20260506021919 58 235 2.0 8.0 0.00 0.00 0.00 100 948.6
20260506021816 58 244 2.0 8.0 0.00 0.00 0.00 100 948.5
20260506021614 58 187 1.0 6.0 0.00 0.00 0.00 100 948.5
20260506021411 58 128 2.0 6.0 0.00 0.00 0.00 100 948.4
20260506021310 58 130 2.0 6.0 0.00 0.00 0.00 100 948.4
20260506021208 58 135 2.0 6.0 0.00 0.00 0.00 100 948.4
20260506021004 58 296 2.0 5.0 0.00 0.00 0.00 100 948.4
20260506020801 58 0 2.0 5.0 0.00 0.00 0.00 100 948.4
20260506020700 59 0 2.0 5.0 0.00 0.00 0.00 100 948.4
20260506020558 59 227 2.0 7.0 0.00 0.00 0.00 100 948.5
20260506020354 59 178 4.0 15.0 0.00 0.00 0.00 100 948.4
20260506020152 59 166 6.0 15.0 0.00 0.00 0.00 100 948.4
20260506020051 59 167 6.0 15.0 0.00 0.00 0.00 100 948.3
20260506015949 59 170 6.0 15.0 0.00 0.00 0.00 100 948.2
20260506015746 59 173 5.0 13.0 0.00 0.00 0.00 100 948.4
20260506015543 59 176 5.0 14.0 0.00 0.00 0.00 100 948.3
20260506015442 59 176 4.0 14.0 0.00 0.00 0.00 100 948.2
20260506015340 59 176 4.0 14.0 0.00 0.00 0.00 100 948.2
20260506015137 59 200 2.0 8.0 0.00 0.00 0.00 100 948.2
20260506014933 59 181 3.0 10.0 0.00 0.00 0.00 100 948.2
20260506014833 59 182 3.0 10.0 0.00 0.00 0.00 100 948.3
20260506014730 59 171 4.0 12.0 0.00 0.00 0.00 100 948.4
20260506014528 59 173 3.0 12.0 0.00 0.00 0.00 100 948.3
20260506014325 59 170 5.0 21.0 0.00 0.00 0.00 100 948.4
20260506014224 59 167 4.0 21.0 0.00 0.00 0.00 100 948.2
20260506014121 59 171 4.0 21.0 0.00 0.00 0.00 100 948.2
20260506013918 59 180 3.0 15.0 0.00 0.00 0.00 100 948.3
20260506013715 59 200 3.0 15.0 0.00 0.00 0.00 100 948.3
20260506013615 59 195 3.0 15.0 0.00 0.00 0.00 100 948.3
20260506013512 59 213 2.0 12.0 0.00 0.00 0.00 100 948.4
20260506013310 59 186 3.0 12.0 0.00 0.00 0.00 100 948.1
20260506013106 59 184 4.0 14.0 0.00 0.00 0.00 100 948.1
20260506013006 59 187 4.0 14.0 0.00 0.00 0.00 100 948.1
20260506012904 59 184 4.0 12.0 0.00 0.00 0.00 100 948.1
20260506012701 59 196 4.0 16.0 0.00 0.00 0.00 100 948.1
20260506012458 59 199 4.0 16.0 0.00 0.00 0.00 100 948.0
20260506012357 59 192 5.0 22.0 0.00 0.00 0.00 100 947.8
20260506012255 59 189 5.0 22.0 0.00 0.00 0.00 100 947.8
20260506012051 59 182 4.0 22.0 0.00 0.00 0.00 100 948.0
20260506011848 59 192 4.0 15.0 0.00 0.00 0.00 100 947.8
20260506011748 59 197 3.0 15.0 0.00 0.00 0.00 100 947.8
20260506011646 59 198 4.0 15.0 0.00 0.00 0.00 100 947.9
20260506011443 60 187 4.0 13.0 0.00 0.00 0.00 100 947.9
20260506011240 60 190 4.0 13.0 0.00 0.00 0.00 100 947.9
20260506011140 60 192 4.0 14.0 0.00 0.00 0.00 100 947.9
20260506011038 60 196 4.0 16.0 0.00 0.00 0.00 100 947.9
20260506010835 60 190 6.0 19.0 0.00 0.00 0.00 100 947.9
20260506010631 60 191 4.0 19.0 0.00 0.00 0.00 100 948.0
20260506010531 60 198 4.0 16.0 0.00 0.00 0.00 100 948.0
20260506010429 60 193 4.0 20.0 0.00 0.00 0.00 100 947.9
20260506010226 60 187 5.0 20.0 0.00 0.00 0.00 100 948.0
20260506010023 59 188 5.0 20.0 0.00 0.00 0.00 100 948.0
20260506005922 59 191 4.0 17.0 0.00 0.00 0.00 100 947.9
20260506005820 59 190 4.0 17.0 0.00 0.00 0.00 100 948.0
20260506005617 59 202 3.0 13.0 0.00 0.00 0.00 100 948.1
20260506005413 59 187 3.0 16.0 0.00 0.00 0.00 100 948.0
20260506005312 60 188 4.0 16.0 0.00 0.00 0.00 100 948.0
20260506005210 60 191 4.0 16.0 0.00 0.00 0.00 100 948.0
20260506005006 60 182 5.0 16.0 0.00 0.00 0.00 100 948.1
20260506004803 60 177 4.0 16.0 0.00 0.00 0.00 100 948.1
20260506004703 60 179 3.0 16.0 0.00 0.00 0.00 100 948.2
20260506004600 60 194 3.0 13.0 0.00 0.00 0.00 100 948.2
20260506004357 60 206 3.0 19.0 0.00 0.00 0.00 100 948.1
20260506004153 60 202 3.0 19.0 0.00 0.00 0.00 100 948.2
20260506004053 60 210 3.0 13.0 0.00 0.00 0.00 100 948.1
20260506003855 60 195 3.0 12.0 0.00 0.00 0.00 100 948.3
20260506003652 60 191 4.0 16.0 0.00 0.00 0.00 100 948.2
20260506003552 60 191 4.0 17.0 0.00 0.00 0.00 100 948.2
20260506003450 60 192 4.0 17.0 0.00 0.00 0.00 100 948.1
20260506003246 60 186 4.0 17.0 0.00 0.00 0.00 100 948.0
20260506003043 60 188 3.0 14.0 0.00 0.00 0.00 100 948.2
20260506002942 60 193 4.0 14.0 0.00 0.00 0.00 100 948.1
20260506002840 60 183 4.0 15.0 0.00 0.00 0.00 100 948.1
20260506002636 60 178 4.0 15.0 0.00 0.00 0.00 100 948.2
20260506002433 60 184 5.0 18.0 0.00 0.00 0.00 100 948.1
20260506002319 61 186 4.0 18.0 0.00 0.00 0.00 100 948.1
20260506002217 61 183 5.0 18.0 0.00 0.00 0.00 100 948.0
20260506002014 61 185 5.0 20.0 0.00 0.00 0.00 100 948.0
20260506001810 61 173 7.0 23.0 0.00 0.00 0.00 100 948.1
20260506001710 61 170 6.0 23.0 0.00 0.00 0.00 100 948.1
20260506001607 61 171 7.0 23.0 0.00 0.00 0.00 100 948.1
20260506001403 61 172 6.0 20.0 0.00 0.00 0.00 100 948.2
20260506001201 61 175 6.0 22.0 0.00 0.00 0.00 100 948.2
20260506001100 61 178 4.0 22.0 0.00 0.00 0.00 100 948.2
20260506000957 61 184 4.0 22.0 0.00 0.00 0.00 100 948.1
20260506000754 61 179 5.0 17.0 0.00 0.00 0.00 100 948.2
20260506000551 61 176 5.0 17.0 0.00 0.00 0.00 100 948.3